Wind_Speed
32 31 31 30 29 29 29 28 27 27 26 27 27 27 27 27 26 24 24 24 24 24 24 22 21 21 21 20 19 19 19 19 19 19 18 18 17 17 16 16 15 15 15 14 14 13 12 12 12 13 13 12 12 12 12 11 10 9 9 8 8 7 7 6 5 4 3 3 4 7 9 9 10 11 12 13 14 15 14 13 12 12 12 12 14
33 32 31 31 30 30 29 29 28 28 28 28 28 28 28 28 27 27 26 25 24 24 24 22 21 22 23 22 21 20 20 19 19 19 19 18 18 18 18 18 17 17 16 16 15 15 15 14 13 14 14 13 12 11 11 11 10 9 9 8 7 7 7 6 5 4 4 5 6 7 8 8 9 10 12 13 13 12 11 10 9 10 11 12 14
32 32 31 31 30 30 30 30 30 30 29 29 29 28 28 28 28 29 28 26 25 25 24 23 22 21 22 23 22 21 21 21 21 20 19 19 19 19 19 19 19 19 18 17 17 17 17 16 16 15 15 14 14 13 12 12 11 11 10 9 8 8 8 7 6 5 4 6 7 8 9 10 10 11 12 12 11 10 8 7 7 8 10 11 13
32 32 32 31 30 30 31 31 31 31 31 30 30 29 28 28 29 29 29 28 28 26 25 25 24 23 22 23 23 22 22 22 22 21 20 19 19 19 19 19 20 20 20 20 19 19 19 19 18 18 17 17 16 15 15 14 13 13 12 11 10 10 10 9 7 7 7 8 9 10 11 11 11 11 11 10 10 8 6 5 6 7 9 11 13
32 32 32 32 32 31 31 31 31 32 31 31 30 30 29 29 29 29 29 29 29 28 27 26 26 25 24 23 23 23 23 23 23 22 21 20 20 19 20 20 21 21 22 22 22 21 21 20 20 20 20 19 18 17 17 16 16 15 15 14 13 13 12 11 10 10 10 10 10 10 11 10 10 11 10 9 8 7 5 5 6 7 9 12 13
31 31 31 31 32 32 31 31 31 30 30 30 30 30 30 30 30 29 29 29 29 29 28 28 27 27 26 24 24 24 23 24 23 22 22 21 21 20 20 20 21 22 23 23 24 23 22 22 22 22 22 20 20 19 19 18 18 17 16 16 16 15 15 13 13 12 11 11 10 10 10 9 10 11 10 9 7 7 6 5 7 8 10 13 14
30 30 30 30 30 31 31 30 30 29 29 29 29 30 30 30 30 29 29 29 29 29 29 28 28 27 27 26 26 25 24 25 24 23 22 22 22 21 20 20 20 21 22 23 24 24 24 23 23 23 22 21 21 21 21 21 20 19 18 17 17 17 16 15 14 13 12 10 10 10 9 9 10 11 10 9 8 8 8 8 8 10 12 14 16
29 29 29 28 29 29 29 30 30 29 28 28 29 29 30 30 30 30 29 29 29 29 28 28 27 27 27 27 27 26 26 26 25 25 24 23 23 22 21 20 19 20 20 22 23 24 24 24 24 24 23 22 22 22 22 22 21 20 19 19 19 18 16 16 15 13 12 11 10 11 10 9 11 11 10 10 9 9 10 11 11 12 13 15 17
28 28 28 28 28 28 29 30 30 30 30 29 29 29 29 30 29 29 29 29 28 28 28 27 27 27 27 27 28 28 28 27 26 25 25 24 23 22 21 20 19 19 19 20 21 22 23 23 24 24 24 24 23 23 23 23 23 22 21 21 21 20 18 17 15 14 14 12 12 12 11 10 11 11 10 11 11 11 12 13 14 14 15 16 17
29 29 28 28 28 28 29 29 30 31 31 31 30 30 30 29 29 29 29 28 28 28 27 28 27 27 27 27 28 28 28 28 26 25 25 25 24 23 22 20 19 19 19 19 20 21 21 21 21 22 23 24 25 25 25 25 25 24 23 23 22 21 20 19 17 16 16 14 13 13 12 10 11 11 10 11 12 13 14 15 16 17 17 18 19
31 31 29 28 29 29 29 30 30 30 31 31 31 30 30 30 30 29 29 28 28 28 28 28 27 27 27 27 28 28 28 27 26 25 25 25 25 25 24 22 20 19 19 19 19 19 19 19 19 19 20 22 23 24 25 26 26 26 25 24 24 23 23 22 20 18 17 16 15 15 14 12 11 11 11 11 13 14 15 17 18 19 20 20 21
32 33 32 30 30 29 30 30 30 30 30 30 31 30 31 31 30 30 29 28 28 28 28 28 27 27 27 27 28 28 27 26 25 24 25 25 25 26 25 23 22 21 20 19 19 18 18 17 17 17 17 17 18 21 24 25 26 26 25 25 25 25 25 23 21 20 19 18 16 16 16 14 12 11 12 12 13 14 16 18 19 20 21 22 23
32 33 33 32 31 30 30 30 30 30 30 30 30 30 31 31 31 30 29 29 29 29 28 27 27 26 27 27 28 28 26 25 24 24 24 25 25 26 26 25 23 22 21 20 19 19 18 17 17 16 14 14 15 17 19 22 24 25 25 25 25 25 24 22 21 21 20 19 18 17 16 16 14 11 12 13 13 15 16 17 19 20 21 22 24
30 32 33 33 33 32 31 31 31 31 30 30 31 31 31 31 30 30 29 29 29 29 28 28 27 26 26 27 27 27 26 25 24 24 24 24 25 26 26 25 24 24 23 22 21 20 19 18 17 15 14 14 13 13 15 18 21 24 24 24 24 22 21 20 20 19 19 19 19 18 17 18 16 13 12 14 14 16 17 17 19 20 20 21 23
27 29 32 34 34 33 33 32 32 31 31 31 31 32 32 31 30 29 29 29 29 29 29 29 28 26 26 26 26 26 25 24 24 24 23 23 24 25 26 26 26 25 24 24 23 22 21 20 18 16 14 13 12 12 12 14 18 22 24 24 22 21 19 18 17 17 18 19 19 18 18 18 17 15 14 15 17 18 19 19 19 20 20 21 23
28 29 31 33 35 35 34 34 34 33 33 33 32 32 32 31 31 30 29 29 28 28 29 29 29 28 27 26 26 26 25 24 24 24 24 24 24 25 26 27 27 26 26 25 24 23 22 21 19 17 15 14 13 12 12 13 14 18 21 22 22 21 19 17 17 17 18 19 19 19 18 18 18 17 16 18 19 20 21 20 21 21 22 22 23
31 33 33 33 34 35 35 36 36 35 35 35 34 33 33 32 32 31 30 29 28 27 28 29 29 29 28 27 26 25 25 24 24 24 24 24 25 25 26 27 28 28 27 25 25 24 23 22 20 19 17 16 15 14 14 14 14 14 16 18 20 20 19 18 18 19 19 20 20 20 20 19 18 18 19 20 21 22 22 22 22 22 23 24 25
32 36 36 34 33 33 33 35 36 37 37 36 35 34 34 33 33 32 32 31 29 27 27 27 28 29 29 28 27 26 25 25 25 24 24 24 25 26 26 27 27 28 27 26 25 24 23 22 21 20 19 17 16 16 17 17 16 14 14 16 18 19 18 17 18 20 21 22 22 21 21 20 20 21 22 22 22 22 23 24 24 24 24 25 26
34 38 37 35 33 32 31 32 34 35 38 38 37 36 35 34 34 33 33 32 31 29 28 27 28 28 28 28 27 26 26 25 26 26 25 26 26 27 27 27 27 27 26 26 25 25 24 23 22 21 19 17 17 18 18 19 18 16 16 16 17 16 15 16 19 20 22 23 23 23 23 23 23 23 23 23 23 23 24 25 25 25 25 26 26
37 40 39 36 35 33 32 31 31 32 35 37 38 38 37 36 35 34 34 34 32 31 30 29 28 28 27 27 27 27 26 26 26 26 27 27 28 28 29 29 28 27 26 25 25 25 25 24 23 21 19 18 18 19 19 20 20 19 19 19 17 15 15 18 20 21 22 23 23 24 24 24 24 23 23 23 24 25 25 25 25 26 26 27 27
41 44 43 40 37 35 33 32 31 29 30 32 36 38 38 38 37 36 35 34 34 33 32 30 29 28 28 27 27 27 26 26 26 27 27 29 29 30 31 31 30 29 28 27 26 26 25 24 23 21 20 19 19 20 21 21 22 22 22 21 20 18 19 21 21 21 21 22 22 23 23 23 22 22 23 24 25 26 26 26 25 26 27 28 28
45 48 46 42 39 37 35 33 32 30 28 28 31 36 38 39 39 38 37 36 35 34 33 32 31 30 29 28 27 26 26 26 27 27 28 29 30 30 31 31 30 29 30 29 28 26 25 24 23 21 20 20 20 21 22 23 24 24 24 23 22 22 22 22 22 22 21 21 21 21 21 21 21 22 24 25 25 26 26 25 26 27 28 29 29
44 45 43 42 40 38 36 34 32 31 29 28 28 32 36 38 39 40 39 38 37 36 35 34 32 31 30 30 28 27 26 26 27 27 28 29 29 30 31 30 29 30 30 30 28 27 27 26 24 23 23 22 22 22 23 24 25 25 24 24 24 24 23 23 22 22 21 21 21 20 20 21 22 23 24 25 26 26 26 26 26 28 29 30 30
42 41 40 40 40 39 37 36 33 31 30 29 28 30 33 37 39 40 40 40 39 38 36 35 33 32 31 31 30 28 27 26 26 26 27 28 28 29 29 29 29 29 30 29 29 28 28 27 26 26 26 26 25 24 24 24 24 23 23 24 25 25 24 23 22 22 22 21 20 20 21 21 22 23 24 25 26 26 26 27 28 29 29 30 30
41 42 41 41 41 40 39 37 35 33 32 30 29 30 32 35 37 39 41 42 42 40 38 37 35 34 32 31 31 30 28 27 26 26 26 27 27 28 28 28 27 28 28 28 28 28 27 27 27 28 28 27 27 26 25 24 24 23 23 24 24 24 23 22 22 22 22 21 21 21 21 22 22 23 24 25 26 27 27 28 29 29 30 30 31
40 42 43 44 44 42 41 39 38 36 33 32 31 31 32 33 35 38 40 42 43 41 40 39 37 36 34 32 30 30 29 28 27 26 26 26 27 27 27 27 26 26 27 27 27 27 27 27 27 27 26 26 26 26 25 25 24 24 24 24 23 23 22 22 22 22 21 21 21 21 21 22 23 24 24 26 26 27 27 28 28 29 29 30 30
40 40 41 42 43 43 42 41 39 38 35 33 32 32 32 32 34 37 39 41 42 41 41 41 40 38 35 33 31 29 29 29 29 28 27 26 26 26 26 26 26 25 25 25 25 25 25 24 25 25 24 25 25 25 24 24 24 24 24 23 23 22 22 22 22 22 21 21 22 22 22 23 24 25 26 26 26 27 27 28 28 28 28 28 29
40 40 40 39 39 40 40 40 40 39 37 34 33 33 33 32 33 35 38 40 40 40 41 41 41 39 36 33 31 29 29 30 30 30 27 25 24 25 25 25 24 24 23 21 21 22 22 22 23 24 24 25 26 25 25 25 25 25 24 24 23 22 22 23 23 22 22 23 23 23 23 25 26 27 27 27 27 28 29 29 29 28 28 28 28
41 40 40 39 38 38 38 38 38 38 37 36 35 34 33 33 32 33 35 37 38 40 40 41 40 38 36 33 30 30 29 28 27 27 26 24 23 24 24 23 23 22 21 20 21 22 23 24 26 27 28 29 28 26 25 25 25 25 25 24 24 24 24 24 24 24 24 25 26 26 27 27 28 28 28 28 28 29 29 29 28 27 28 28 28
42 41 40 39 39 39 38 37 37 36 36 36 36 36 35 34 33 33 34 35 37 39 40 39 38 36 34 32 30 29 27 25 24 26 26 25 24 23 22 22 22 22 21 22 25 27 28 30 31 31 32 31 28 27 26 26 25 25 25 25 26 27 27 27 26 26 27 28 28 28 28 29 29 28 27 26 26 26 27 27 27 26 27 28 28
42 41 41 40 40 40 39 39 38 38 38 38 38 37 36 36 35 35 35 35 36 38 38 37 35 34 32 31 28 24 22 22 24 25 26 25 23 22 22 22 23 23 24 26 30 32 33 34 34 33 32 31 28 27 27 27 27 26 26 27 27 28 29 29 28 28 29 29 29 28 28 28 28 26 24 23 23 25 25 25 25 25 27 28 28
44 43 42 42 42 41 40 40 40 40 40 41 40 38 37 37 37 37 38 37 36 37 37 35 33 32 30 28 25 23 23 23 24 24 24 24 23 22 23 24 25 26 28 31 34 36 37 36 35 33 32 30 28 28 28 28 27 27 27 27 28 28 28 28 28 28 28 28 28 27 27 27 25 23 22 22 23 24 25 25 25 26 28 29 29
47 45 44 44 44 43 42 41 42 43 43 43 43 41 40 39 38 38 39 40 39 39 38 35 33 32 30 28 27 26 26 26 26 26 26 26 26 25 26 27 28 30 32 35 37 38 38 37 35 33 31 29 28 28 27 26 25 26 26 25 25 24 25 25 25 26 26 26 25 25 25 25 24 22 22 22 23 24 25 26 27 27 29 30 31
48 47 47 46 45 45 44 43 44 46 46 45 44 42 41 41 41 40 40 41 41 40 38 36 35 33 32 32 30 28 28 29 29 29 29 29 29 29 30 31 33 34 37 38 39 39 37 36 35 32 28 26 25 24 22 22 23 24 25 24 23 23 24 25 25 26 25 25 24 24 24 24 23 22 22 23 23 25 26 27 28 28 29 31 31
47 47 48 48 46 44 45 45 46 47 45 43 41 40 41 41 40 40 42 43 41 39 36 35 37 36 34 34 33 32 31 32 31 31 31 31 32 33 34 36 37 39 39 39 38 37 34 32 31 27 24 22 22 21 21 22 23 24 25 24 24 25 26 26 26 25 24 23 23 23 23 24 23 23 23 24 24 25 27 28 28 29 30 30 30
47 47 48 48 45 43 45 47 47 46 45 43 40 40 41 41 39 39 41 43 43 40 36 34 37 39 37 35 35 34 33 33 32 32 32 33 33 35 37 39 40 39 38 36 34 33 31 29 28 25 22 22 23 23 22 23 24 25 25 25 25 25 26 26 25 23 22 21 22 22 23 24 24 24 25 25 26 27 28 28 29 30 30 30 29
47 47 47 47 45 44 46 48 47 44 43 42 40 40 42 43 42 40 40 42 44 43 37 35 38 41 40 36 36 36 35 34 34 35 35 35 36 37 39 40 40 38 35 33 32 31 30 29 28 25 22 22 23 24 24 25 25 25 25 25 25 26 26 25 23 22 20 20 21 22 23 24 25 25 26 27 28 29 29 29 30 30 30 29 29
47 47 46 46 45 44 46 47 46 43 42 42 42 42 44 45 45 43 41 42 43 43 40 38 40 44 44 41 39 39 38 37 36 37 36 36 37 39 40 41 40 37 35 32 31 30 29 29 29 27 24 24 25 26 26 27 27 27 26 27 28 27 25 23 21 20 19 21 23 24 26 27 27 27 27 28 29 30 30 30 30 30 30 29 29
47 48 46 45 43 43 45 46 46 44 43 42 43 44 46 47 47 45 43 43 44 45 44 43 43 46 46 44 43 43 42 41 40 39 37 37 38 39 40 41 40 38 35 33 32 31 30 30 29 27 26 25 26 27 27 26 27 28 27 28 29 28 26 25 23 22 23 25 26 27 29 30 30 29 29 29 30 31 31 31 30 29 28 28 28
43 46 47 45 43 41 42 44 46 45 43 41 43 44 45 46 46 46 45 45 46 47 46 46 46 47 46 45 45 46 46 45 43 39 37 37 37 37 38 39 39 37 35 34 33 32 31 30 29 27 26 26 26 26 25 24 26 29 29 28 29 28 26 25 26 27 28 29 29 30 31 32 31 31 31 31 32 32 31 31 30 29 27 27 26
37 42 46 46 43 40 38 39 42 44 44 43 44 45 45 44 44 45 46 46 46 47 48 48 48 47 45 45 47 48 48 49 45 39 35 35 34 33 35 37 37 36 35 34 33 32 31 30 28 27 27 27 27 27 27 26 28 30 30 29 30 29 25 24 26 29 30 31 32 32 32 31 31 32 32 32 32 31 31 31 30 28 27 27 26
29 35 40 41 40 38 36 35 35 38 41 43 45 45 43 43 44 45 46 47 47 48 48 48 48 47 46 47 48 48 50 50 47 40 36 36 34 34 34 35 35 35 34 33 32 30 29 28 27 26 28 29 28 28 27 27 29 31 31 31 31 29 25 25 29 32 34 35 35 34 33 32 32 33 33 33 32 31 30 30 29 28 27 27 27
22 26 30 33 35 35 34 34 34 34 36 39 42 43 42 43 45 46 47 47 48 48 48 48 47 47 48 49 48 48 49 50 47 42 38 38 37 37 38 37 36 35 33 33 32 31 29 29 30 30 31 32 31 29 27 26 28 32 33 33 32 29 26 27 31 33 34 35 36 35 34 33 32 32 32 31 30 29 28 28 28 28 28 27 27
17 19 21 25 30 32 32 32 34 34 33 35 38 41 41 43 44 45 46 46 46 47 47 46 46 47 50 51 49 47 47 49 48 43 40 40 41 41 41 39 37 35 33 33 33 31 29 30 33 34 33 33 33 32 29 29 33 37 37 35 31 29 28 31 34 34 34 33 33 33 32 30 29 29 30 29 27 27 27 28 28 29 29 28 29
15 15 13 15 19 24 28 31 32 33 34 36 39 40 42 44 45 45 45 46 45 45 45 46 46 47 48 50 48 46 46 49 49 45 42 42 42 42 41 39 36 33 32 31 30 30 31 35 38 37 35 35 35 34 34 34 35 36 35 32 29 28 29 30 31 31 30 29 29 30 30 30 31 31 30 29 28 28 29 30 30 30 30 31 31
15 15 13 12 11 12 16 23 29 32 33 33 33 36 42 45 46 47 47 46 44 44 44 45 45 44 45 47 46 43 43 46 47 45 42 41 40 38 37 36 33 31 29 29 31 35 39 41 40 37 35 35 35 34 33 32 31 29 30 30 29 28 28 27 27 27 27 27 29 30 31 31 31 30 30 30 30 30 31 31 32 32 31 32 32
13 14 13 12 11 10 7 7 12 18 22 23 25 32 38 38 37 41 44 42 40 42 43 41 41 43 45 48 47 42 39 40 41 39 38 39 39 38 37 37 36 36 35 36 37 39 40 39 36 35 34 33 32 30 28 28 28 28 30 30 29 28 27 26 25 26 27 28 29 29 29 30 30 30 31 32 32 32 32 32 32 32 32 33 33
8 9 8 8 10 11 9 4 2 5 11 16 22 31 35 32 30 34 36 33 32 35 37 36 36 39 42 45 44 39 36 35 37 39 39 40 40 39 38 39 40 40 40 39 38 37 36 34 33 32 30 28 26 27 28 29 29 28 27 26 25 26 25 24 25 27 28 29 29 30 30 31 33 33 34 34 33 33 32 33 33 33 34 34 35
3 3 4 6 7 8 10 9 8 9 11 13 15 18 23 27 28 28 27 26 27 29 30 30 31 34 36 36 35 33 33 36 39 41 42 41 39 38 37 38 38 37 37 36 35 33 32 30 28 26 26 26 27 28 29 28 27 27 27 25 25 24 25 26 27 28 28 28 29 30 31 32 33 34 34 33 33 32 33 34 34 35 35 35 35
4 2 3 4 5 6 6 8 12 15 18 19 18 15 11 18 24 23 22 24 26 27 28 30 30 30 31 32 31 32 34 36 36 36 36 36 37 37 37 37 35 33 32 31 29 28 27 27 25 25 26 26 27 27 26 25 26 28 29 28 26 26 27 29 29 28 27 28 29 31 32 33 35 36 37 36 35 33 33 34 35 35 36 36 35
7 4 2 1 2 4 5 4 7 12 16 20 21 18 13 15 20 21 21 24 26 25 27 29 30 29 30 33 34 34 35 35 35 35 35 35 36 35 33 30 29 28 27 27 26 25 25 26 26 27 27 27 27 28 28 27 26 27 28 28 27 28 28 29 28 28 30 31 31 32 34 35 35 35 36 35 34 33 32 33 33 34 34 35 34
Wind_Direction
203 202 203 205 207 208 209 209 209 210 211 214 215 215 215 217 218 218 215 213 213 217 218 216 215 217 220 220 216 214 214 213 212 213 213 212 212 212 208 204 202 203 203 201 196 194 194 192 188 184 184 184 183 178 172 169 168 167 166 168 171 170 166 164 172 195 222 262 295 308 320 325 323 321 319 319 323 332 348 5 12 5 354 355 4
205 203 203 206 208 208 208 209 209 208 209 212 213 214 215 215 216 218 220 218 215 217 219 217 214 213 218 222 221 217 215 215 214 213 213 214 215 216 215 210 208 208 207 205 203 201 200 199 197 193 191 190 190 190 187 186 188 188 187 189 193 196 193 188 190 216 260 284 295 301 305 304 299 299 304 312 321 335 351 2 3 357 353 356 5
208 206 205 207 209 209 209 209 209 209 209 211 212 213 215 215 215 217 220 221 220 219 220 221 219 215 215 220 223 222 219 218 218 216 215 216 217 219 220 217 215 214 213 211 209 208 207 206 205 202 200 198 198 200 200 202 203 203 205 207 210 216 220 216 212 217 244 272 281 280 277 278 282 290 302 311 321 334 345 348 347 349 350 352 1
210 209 207 207 209 210 211 210 210 210 210 210 211 212 214 215 216 217 218 221 222 222 221 222 224 221 218 217 221 223 222 221 221 221 219 218 219 222 224 223 221 219 218 216 215 214 211 210 211 210 208 206 206 207 208 210 212 214 217 219 222 229 233 232 235 232 226 239 256 260 259 267 280 291 302 311 317 321 324 329 334 339 343 344 352
212 212 210 208 209 211 212 211 211 212 211 212 211 212 213 215 217 218 218 220 223 224 223 223 224 224 223 220 220 222 223 224 224 224 224 224 224 225 226 226 226 224 222 219 218 218 216 213 214 216 215 212 212 214 214 214 217 218 220 224 227 232 237 238 242 240 231 232 244 253 258 269 283 294 302 305 300 296 301 315 320 326 337 337 342
211 212 211 210 210 212 213 213 214 213 213 213 213 213 214 216 218 219 219 220 222 224 225 224 223 224 225 225 223 221 222 224 226 225 226 227 227 228 228 227 227 227 226 224 221 219 219 218 218 220 219 217 216 219 220 220 221 221 222 226 229 231 234 236 240 239 235 237 244 252 260 272 282 290 298 299 285 278 283 300 311 321 331 330 334
212 212 211 211 212 213 214 215 216 215 215 215 214 215 216 217 219 220 220 221 222 225 226 226 224 223 224 227 227 225 223 223 225 226 225 226 227 228 230 230 229 228 229 229 227 223 221 220 221 223 223 221 220 222 225 226 226 226 227 230 232 233 232 234 239 241 242 248 255 255 257 268 278 285 293 296 289 282 282 290 305 321 331 329 330
212 212 212 212 212 214 215 216 218 218 217 216 216 216 218 219 221 222 222 222 222 224 227 228 227 225 224 225 227 227 227 225 224 225 225 225 226 227 230 230 230 230 229 231 232 230 227 223 224 226 227 226 224 225 228 229 230 231 231 234 236 237 237 238 243 247 250 256 258 252 250 262 276 284 292 295 291 287 286 289 298 315 332 334 330
211 212 213 213 213 214 216 217 219 220 219 219 217 218 218 220 222 223 225 225 225 225 227 228 229 227 225 225 226 227 229 228 226 225 226 228 228 230 231 230 230 230 230 231 232 234 233 230 228 228 230 230 230 229 231 232 233 233 234 237 239 240 241 242 245 249 254 257 253 247 247 258 272 282 292 296 293 289 287 290 298 311 328 335 331
214 214 214 214 215 216 218 219 220 221 222 221 220 220 220 220 222 224 225 227 227 228 228 228 228 227 226 226 226 228 229 230 229 227 227 228 231 233 234 232 230 229 228 230 232 234 236 236 235 234 233 234 234 233 233 234 236 236 235 238 241 243 245 245 245 247 251 254 250 246 246 254 268 279 286 292 294 292 291 293 300 310 322 329 327
217 217 218 217 217 218 219 220 221 222 223 223 223 223 222 222 223 224 225 226 227 229 229 229 228 227 227 227 228 229 230 230 231 230 229 229 230 233 235 234 232 229 226 226 228 231 234 235 236 236 236 236 236 236 236 236 237 238 238 239 241 244 246 246 246 247 249 250 247 245 247 250 261 275 281 288 293 292 293 296 302 311 319 323 321
217 218 219 220 219 219 220 221 222 223 224 224 225 225 225 225 225 226 226 226 228 229 230 231 230 228 228 228 228 230 230 229 230 231 231 231 232 234 235 235 233 231 229 226 225 227 229 230 231 233 234 236 237 238 238 238 238 238 239 240 241 243 246 247 248 248 248 248 243 241 247 251 255 269 278 284 291 293 296 300 305 313 320 321 318
216 217 218 219 219 220 221 222 223 224 225 226 226 226 227 227 227 228 228 228 228 230 232 233 232 230 230 229 229 230 230 229 229 229 229 230 231 234 235 235 233 233 233 232 229 228 228 228 228 228 230 233 236 238 240 240 240 239 239 240 242 244 246 247 247 246 245 245 240 237 246 253 253 262 274 281 290 296 300 304 308 313 318 318 315
221 217 217 218 218 219 220 221 222 224 225 227 228 228 229 229 229 229 230 230 230 231 233 234 234 233 231 231 231 232 231 229 230 230 229 228 229 232 234 234 233 231 232 233 233 232 231 231 230 227 227 231 234 237 239 239 240 240 240 240 240 243 244 244 244 243 240 240 237 235 244 254 255 260 274 283 293 298 300 304 307 309 313 315 311
233 226 222 219 218 218 218 221 223 224 224 226 228 229 231 231 232 231 230 231 232 232 233 235 237 237 234 233 233 233 232 229 229 229 228 227 228 230 233 234 233 231 231 231 233 233 234 235 235 232 231 233 236 238 238 235 235 236 238 240 241 242 242 242 243 242 240 239 239 237 241 250 257 264 276 286 295 298 298 301 304 305 308 310 308
236 238 230 221 219 219 218 220 224 225 225 226 227 229 231 232 233 233 232 232 233 234 234 235 236 238 238 236 234 233 231 230 229 228 227 227 228 229 232 234 235 234 233 233 234 235 236 238 239 239 237 237 238 240 241 239 235 233 235 238 240 242 243 244 245 246 245 245 246 245 245 250 257 267 278 287 293 294 294 298 301 302 303 305 306
235 241 233 224 221 220 219 220 223 225 226 226 227 228 230 232 234 234 235 234 234 234 235 235 237 238 240 240 237 233 229 228 229 228 227 228 230 232 234 235 238 238 238 237 238 238 239 240 240 241 241 240 240 242 242 242 240 237 235 236 239 242 244 246 248 249 250 250 251 251 253 256 261 270 279 285 289 290 291 294 297 298 300 302 305
235 239 230 223 223 222 221 221 222 225 227 226 228 229 230 232 234 235 237 237 237 236 237 238 239 239 241 242 241 238 232 227 226 227 227 230 233 235 237 239 241 242 242 242 242 242 241 241 241 241 242 242 243 245 247 247 245 241 238 237 237 239 241 243 246 248 251 253 254 256 259 263 267 271 276 280 284 287 287 290 295 297 299 301 304
229 235 228 224 226 226 225 224 223 225 227 227 229 230 231 233 234 235 238 239 240 239 239 239 240 240 242 243 244 244 240 232 227 225 226 229 233 236 239 240 242 244 246 246 246 245 244 243 242 243 243 243 244 247 250 253 254 252 248 245 241 237 238 243 246 248 251 254 257 260 263 265 268 270 273 277 281 284 285 289 295 297 298 299 301
221 230 231 229 229 229 229 228 227 228 227 227 229 230 231 233 234 234 237 239 241 241 240 240 240 241 243 244 245 246 245 241 235 229 227 229 231 234 237 240 242 245 248 249 249 248 248 246 244 244 243 242 243 245 248 252 255 256 256 255 253 247 245 248 249 250 253 255 258 260 262 264 266 270 274 278 282 284 287 291 295 296 296 297 299
214 226 233 233 231 231 231 230 232 234 234 231 230 229 230 232 233 234 236 238 240 242 242 242 241 241 242 244 245 247 247 246 243 237 233 231 231 233 235 238 241 244 247 251 252 252 251 250 248 246 244 242 242 243 245 247 250 253 255 258 259 256 253 253 253 254 255 256 258 260 262 265 268 272 276 280 283 285 288 292 295 295 294 295 299
217 228 235 236 234 233 232 232 234 240 243 239 233 229 229 231 232 233 234 236 239 241 242 243 243 242 242 242 244 245 246 247 246 242 239 237 235 235 236 237 239 242 245 250 253 255 255 256 255 253 251 249 245 244 245 246 248 251 254 256 257 257 257 257 258 259 260 261 262 264 267 270 272 274 277 279 281 284 287 290 292 291 292 295 299
226 232 237 239 239 239 238 237 237 240 243 243 238 233 230 230 232 233 233 234 237 239 241 243 243 243 243 242 242 243 245 247 247 246 245 243 240 238 238 238 238 240 243 248 252 254 254 255 256 257 257 256 253 250 249 249 249 252 254 255 256 256 258 260 262 264 265 265 266 268 270 271 273 274 276 278 280 282 285 288 290 290 293 295 297
233 236 238 241 243 243 244 244 241 239 240 242 243 239 233 229 230 232 232 233 235 237 240 241 243 244 244 244 243 242 243 247 250 249 248 247 244 242 241 240 239 240 242 245 248 249 249 250 252 252 254 256 257 257 256 255 255 255 255 256 257 257 259 261 263 265 266 267 268 269 270 270 271 273 275 277 279 282 285 288 290 291 293 294 296
236 239 242 244 245 245 247 247 245 242 240 240 242 243 238 233 230 231 232 232 233 236 238 240 242 244 245 246 246 243 242 245 249 252 250 248 247 245 243 243 243 242 243 244 245 245 245 246 246 247 250 253 256 258 260 261 261 260 258 258 259 260 262 263 264 264 264 266 267 267 269 271 271 273 275 277 280 283 287 289 291 292 293 295 296
240 240 243 246 248 248 248 248 247 245 242 238 240 245 245 239 233 232 233 233 233 235 238 240 242 243 245 247 247 245 243 242 246 251 251 248 246 245 244 244 244 244 244 243 242 242 242 243 245 247 249 251 253 255 257 259 260 260 260 261 262 263 265 265 264 264 265 266 267 268 270 272 274 276 278 279 282 285 287 288 289 291 292 293 295
242 242 243 245 248 249 249 248 248 247 245 240 239 244 248 245 238 233 232 232 233 234 237 239 241 242 244 247 248 247 245 241 243 248 250 248 244 243 242 242 243 245 246 243 242 244 245 246 246 245 245 246 247 249 250 252 254 256 257 258 260 261 262 263 263 265 267 269 270 272 273 275 276 277 278 280 283 285 285 286 288 290 292 294 297
242 243 244 244 246 248 248 247 246 247 248 245 243 244 248 250 244 236 233 233 234 234 235 238 241 242 244 246 248 250 248 244 243 247 251 251 246 242 242 242 243 247 249 248 248 247 244 242 241 241 242 244 245 246 247 248 250 251 253 254 255 256 258 260 262 265 267 269 271 273 274 275 275 277 279 283 285 285 286 288 290 292 294 296 298
241 243 244 244 245 247 247 246 245 246 247 248 248 248 250 252 250 243 239 237 235 235 236 237 239 241 243 245 249 251 252 251 250 251 253 254 250 246 243 242 244 247 249 248 246 242 240 240 242 243 246 247 248 248 249 249 249 250 251 252 253 254 256 258 260 262 264 265 267 269 270 271 272 275 278 281 282 283 285 287 288 290 292 294 297
239 242 244 244 244 246 247 247 246 246 247 247 248 249 250 252 251 247 245 243 240 237 237 237 238 239 239 241 246 250 252 253 250 246 246 249 249 246 242 240 240 240 240 240 241 240 241 243 246 248 250 251 252 254 255 255 254 253 252 252 253 255 257 259 260 260 261 263 264 265 266 267 269 272 274 276 276 278 280 281 283 286 289 293 296
240 241 243 244 244 245 246 246 247 247 248 249 250 250 250 249 248 248 247 247 244 242 240 238 237 235 234 237 239 237 235 234 234 235 238 240 240 238 235 233 232 233 234 238 241 243 246 247 249 251 253 254 256 258 259 259 258 257 256 256 256 257 259 259 260 260 260 261 261 261 262 264 266 267 267 268 271 275 278 281 285 288 291 293 295
243 243 244 245 245 245 244 246 247 248 250 252 252 252 251 249 247 246 247 248 246 244 242 239 234 229 228 228 221 211 209 215 221 224 228 230 229 228 227 227 228 231 234 238 241 244 247 249 250 252 255 257 258 257 257 258 259 259 258 257 256 256 256 256 256 256 256 257 257 257 259 260 262 262 263 267 274 280 285 290 292 292 292 292 293
244 245 245 245 246 246 246 247 249 251 252 253 253 254 253 252 250 247 246 248 248 245 242 237 229 222 219 213 205 199 203 210 216 219 222 225 226 227 228 230 231 233 237 240 243 245 248 251 253 256 258 258 255 252 252 255 259 260 259 257 255 255 255 256 257 256 257 258 257 257 258 258 259 260 265 272 281 287 291 293 294 294 292 291 290
243 244 245 245 245 247 249 251 250 249 248 248 249 251 252 253 253 250 248 248 249 249 245 235 224 217 211 206 202 203 206 211 216 220 223 225 227 230 232 234 236 237 240 242 244 247 250 253 256 256 255 254 253 251 250 252 255 258 258 258 257 257 258 261 262 261 260 259 258 257 256 257 258 262 269 276 283 287 290 291 292 292 291 290 290
244 243 243 243 243 245 248 250 251 251 250 249 249 252 255 256 254 252 249 248 248 250 248 237 224 216 211 208 208 210 212 214 219 223 226 230 232 234 237 239 240 241 243 244 247 250 252 254 255 253 251 253 256 257 256 255 256 259 261 260 258 258 259 260 261 261 260 257 255 254 254 255 258 263 268 274 279 282 284 287 288 289 290 290 289
245 245 243 241 240 240 243 247 248 249 250 250 248 248 251 255 255 251 247 246 245 246 246 239 226 218 213 213 215 218 219 219 222 226 230 234 238 240 243 244 245 245 246 248 248 248 248 248 248 246 243 245 250 254 255 256 258 260 261 262 261 261 261 261 260 259 259 256 255 255 255 257 261 266 269 273 277 280 282 285 287 289 290 289 288
246 246 244 240 238 238 240 244 247 247 247 248 247 246 247 250 251 248 243 242 242 242 241 239 232 224 219 218 221 225 226 225 226 230 233 236 240 243 245 246 246 246 246 245 242 240 241 244 246 246 243 242 247 251 254 256 258 259 260 262 262 262 263 262 260 260 260 260 260 259 258 260 265 269 273 276 280 283 285 287 289 290 288 286 285
252 250 246 242 240 239 239 243 247 248 246 245 246 248 248 249 249 247 242 240 240 239 237 235 233 229 224 222 223 227 230 231 232 235 236 237 239 241 243 244 243 242 240 238 237 237 239 243 246 247 245 244 246 249 251 252 255 257 260 263 265 264 261 258 257 259 262 263 264 266 267 269 271 274 277 280 284 288 289 289 290 290 287 284 284
261 257 253 248 244 241 240 242 245 247 246 243 244 246 248 247 247 246 243 239 238 238 236 234 233 230 227 225 227 229 232 235 237 238 238 237 236 238 240 240 239 238 236 234 235 238 241 244 247 249 249 247 247 249 252 255 259 262 263 265 267 268 264 258 257 259 260 262 265 269 272 273 275 278 281 283 286 287 287 287 287 287 286 283 282
265 261 258 255 250 245 242 241 244 246 247 246 245 246 247 247 246 246 244 241 239 239 237 236 235 232 228 227 228 230 232 236 240 240 238 235 233 234 236 236 235 234 233 233 235 239 243 245 248 251 251 251 252 255 258 260 263 265 265 265 266 267 263 260 260 261 261 264 267 269 269 270 273 277 280 281 282 283 284 284 283 283 282 281 281
268 262 260 258 257 253 247 242 241 244 246 247 247 247 247 247 246 244 243 242 240 239 238 236 235 233 228 225 225 227 230 236 242 244 240 236 234 234 234 234 233 233 233 234 237 240 243 247 249 252 255 256 257 259 260 259 260 264 267 267 266 266 264 263 264 266 267 267 268 267 267 269 272 274 276 277 278 280 281 280 278 277 277 278 279
266 263 261 260 258 256 251 245 242 243 244 246 248 248 247 247 245 243 241 240 240 239 237 236 235 234 230 224 221 222 226 233 240 244 240 235 235 236 235 234 234 234 234 236 239 241 244 247 248 250 254 257 257 259 262 264 266 267 267 268 269 268 265 261 261 262 263 263 263 265 268 271 273 273 273 275 277 278 276 273 273 274 275 276 277
257 257 256 255 255 254 251 247 246 246 247 247 249 249 247 245 244 242 241 240 240 239 237 234 233 233 229 224 219 218 222 229 236 241 241 238 236 237 237 236 236 235 236 238 240 241 244 247 248 249 252 255 257 258 260 261 262 264 267 271 272 269 262 257 258 261 262 263 264 267 271 274 274 274 274 274 274 273 271 270 271 273 274 274 274
247 247 246 245 247 249 250 248 249 251 251 249 249 247 244 241 241 242 241 242 243 242 238 234 231 230 228 223 217 215 219 225 231 237 241 240 238 238 238 237 236 237 238 240 243 246 248 250 252 253 254 256 259 259 255 250 251 258 266 271 270 264 257 255 257 261 265 267 269 271 272 273 274 274 274 273 271 269 270 271 272 272 272 271 271
245 246 247 243 240 241 244 245 248 250 250 249 250 249 243 237 235 236 237 238 239 239 237 232 228 226 225 223 217 213 216 222 228 233 239 241 241 241 241 239 238 241 243 244 245 245 245 246 250 255 258 258 259 258 256 254 255 259 265 268 267 265 263 261 261 263 266 268 269 270 270 271 272 271 271 270 268 268 270 271 271 270 270 270 272
250 250 251 253 255 252 242 239 243 248 253 258 261 256 246 237 231 229 231 231 231 232 233 229 224 222 222 221 218 213 214 219 225 230 235 239 240 240 238 236 235 237 238 236 234 236 241 245 251 255 257 257 258 260 260 260 260 261 262 264 264 265 266 266 266 266 266 264 263 263 265 268 269 269 269 269 269 269 270 270 270 270 271 272 274
255 256 254 257 268 280 273 242 239 246 251 256 256 249 243 237 229 226 227 228 228 230 232 229 221 217 218 219 216 212 210 216 224 230 233 237 240 241 240 238 236 235 236 236 237 240 245 250 253 253 254 255 258 259 259 259 259 260 261 263 265 267 268 267 265 265 265 265 266 267 270 271 272 273 273 273 272 271 271 270 270 271 272 274 276
263 266 273 273 270 270 268 255 184 205 224 232 236 234 231 227 223 225 228 230 230 232 236 234 225 217 216 216 213 209 208 214 224 231 235 239 241 243 242 241 239 237 238 240 243 245 248 249 249 250 251 252 252 252 252 255 258 260 262 264 266 266 265 262 260 261 263 266 269 272 275 275 274 273 271 270 270 271 272 272 273 274 275 277 278
293 291 306 309 300 284 266 247 229 218 220 229 239 235 219 207 206 213 221 225 226 226 227 225 218 211 211 214 215 215 216 220 225 230 234 236 237 238 239 239 239 240 242 243 244 246 247 246 245 245 246 247 247 250 253 257 260 264 265 264 261 259 259 259 260 262 265 268 270 272 273 273 273 272 271 270 271 272 273 275 276 277 277 278 278
291 304 315 313 319 322 298 256 237 235 235 239 252 262 232 193 187 189 196 205 213 214 212 210 208 207 210 216 221 223 226 227 227 226 226 227 230 234 236 237 239 242 243 243 242 243 243 243 243 245 246 246 248 251 255 259 262 265 265 261 257 259 264 265 265 269 273 274 271 268 266 265 266 267 267 267 267 268 271 273 275 277 279 280 280
276 268 247 244 301 322 322 295 251 243 241 241 249 260 249 207 198 199 200 202 205 205 205 208 211 212 214 220 226 231 234 235 232 228 225 224 226 228 230 233 237 241 242 240 239 240 242 243 245 246 247 249 251 255 258 260 260 261 260 258 258 261 264 264 266 271 273 270 266 264 263 262 263 265 266 268 268 270 272 274 277 279 281 282 283
Height
3189 3191 3193 3196 3198 3199 3201 3202 3204 3206 3208 3210 3211 3213 3215 3217 3218 3220 3221 3223 3225 3226 3228 3229 3231 3231 3232 3233 3233 3234 3235 3236 3237 3237 3238 3239 3240 3241 3242 3243 3243 3244 3244 3245 3246 3247 3248 3248 3249 3250 3251 3252 3253 3253 3253 3253 3254 3254 3255 3256 3256 3257 3258 3258 3259 3259 3259 3258 3258 3257 3256 3256 3255 3255 3255 3254 3253 3253 3252 3251 3250 3249 3248 3247 3245
3186 3188 3191 3193 3195 3198 3199 3201 3202 3204 3205 3207 3209 3211 3213 3215 3217 3218 3219 3221 3222 3224 3225 3227 3229 3230 3230 3231 3232 3233 3234 3235 3235 3236 3237 3238 3239 3240 3241 3242 3243 3243 3244 3244 3245 3246 3247 3248 3249 3250 3250 3251 3252 3252 3253 3253 3254 3254 3255 3255 3256 3256 3257 3258 3258 3258 3258 3257 3257 3256 3255 3255 3255 3254 3254 3253 3252 3252 3251 3250 3250 3249 3247 3246 3245
3185 3187 3189 3191 3193 3196 3197 3199 3200 3201 3202 3204 3206 3208 3211 3213 3215 3216 3217 3219 3220 3222 3223 3225 3226 3227 3228 3229 3230 3231 3232 3233 3234 3234 3235 3236 3237 3238 3239 3240 3241 3242 3243 3244 3244 3245 3246 3247 3248 3248 3249 3250 3251 3252 3252 3253 3253 3254 3254 3255 3255 3256 3256 3257 3257 3258 3257 3257 3256 3256 3255 3255 3254 3253 3253 3252 3251 3251 3251 3250 3249 3248 3246 3245 3244
3183 3185 3186 3188 3191 3193 3195 3196 3197 3198 3200 3201 3203 3206 3208 3210 3212 3214 3216 3217 3218 3220 3221 3222 3223 3224 3226 3227 3228 3229 3230 3231 3232 3233 3234 3235 3236 3237 3238 3239 3240 3241 3242 3243 3243 3244 3244 3245 3246 3247 3248 3249 3250 3250 3251 3252 3252 3253 3253 3254 3254 3255 3255 3256 3256 3256 3257 3256 3256 3255 3255 3254 3253 3252 3252 3251 3251 3250 3250 3249 3248 3247 3246 3244 3244
3182 3183 3184 3186 3189 3190 3192 3194 3195 3196 3198 3199 3201 3203 3205 3207 3209 3211 3213 3215 3216 3217 3219 3220 3221 3222 3223 3224 3226 3227 3228 3229 3230 3231 3232 3233 3234 3235 3236 3237 3238 3239 3240 3241 3241 3242 3243 3244 3245 3245 3246 3247 3248 3249 3250 3251 3251 3252 3252 3253 3253 3254 3254 3254 3255 3255 3256 3255 3255 3254 3253 3253 3252 3251 3251 3250 3250 3250 3249 3249 3247 3246 3245 3244 3242
3180 3181 3183 3184 3186 3188 3190 3192 3193 3195 3196 3198 3199 3201 3203 3204 3206 3208 3210 3212 3214 3215 3216 3217 3219 3219 3221 3222 3223 3225 3226 3227 3228 3229 3231 3232 3232 3233 3234 3235 3236 3237 3237 3238 3240 3240 3241 3242 3243 3244 3244 3245 3246 3247 3248 3249 3249 3250 3251 3251 3252 3252 3252 3253 3253 3253 3254 3254 3253 3253 3252 3251 3250 3250 3249 3249 3249 3249 3248 3248 3246 3245 3244 3243 3241
3178 3180 3181 3183 3184 3186 3188 3190 3192 3194 3195 3196 3198 3199 3201 3202 3203 3205 3207 3209 3211 3212 3214 3215 3217 3218 3219 3220 3221 3223 3224 3224 3226 3227 3228 3229 3230 3231 3232 3233 3234 3235 3235 3236 3237 3238 3239 3240 3241 3242 3242 3244 3245 3245 3246 3247 3248 3248 3249 3250 3250 3250 3251 3251 3251 3251 3252 3252 3251 3251 3251 3250 3249 3248 3248 3248 3247 3247 3246 3246 3245 3244 3243 3241 3239
3176 3178 3180 3181 3182 3184 3186 3189 3191 3192 3194 3195 3196 3197 3199 3200 3201 3203 3205 3206 3208 3210 3211 3213 3215 3216 3217 3218 3219 3220 3221 3222 3223 3224 3226 3227 3228 3229 3230 3231 3232 3233 3233 3234 3235 3236 3237 3238 3239 3240 3241 3242 3243 3243 3244 3245 3245 3246 3247 3247 3248 3248 3249 3249 3249 3249 3249 3249 3249 3249 3249 3249 3248 3247 3246 3246 3245 3245 3244 3244 3243 3243 3242 3240 3237
3174 3176 3178 3179 3181 3183 3185 3187 3189 3190 3192 3193 3194 3195 3197 3198 3199 3201 3202 3204 3206 3207 3209 3211 3212 3213 3215 3216 3217 3218 3219 3220 3221 3222 3224 3225 3226 3227 3228 3229 3230 3231 3231 3232 3233 3233 3235 3236 3237 3238 3239 3240 3240 3241 3242 3242 3243 3244 3245 3245 3245 3246 3246 3247 3247 3247 3247 3247 3248 3247 3247 3247 3246 3245 3244 3244 3243 3243 3242 3242 3241 3241 3240 3239 3237
3172 3174 3175 3177 3180 3182 3184 3185 3187 3188 3189 3191 3192 3193 3195 3196 3197 3198 3200 3202 3203 3205 3207 3208 3209 3211 3212 3214 3215 3216 3216 3218 3219 3221 3222 3223 3224 3225 3226 3227 3228 3229 3229 3230 3231 3231 3232 3233 3234 3235 3236 3237 3238 3238 3239 3240 3240 3241 3242 3242 3243 3243 3244 3244 3245 3245 3245 3245 3245 3245 3245 3245 3244 3243 3242 3242 3241 3240 3240 3240 3239 3239 3238 3238 3236
3169 3171 3173 3175 3177 3179 3181 3183 3184 3186 3187 3189 3190 3192 3193 3194 3195 3196 3198 3199 3201 3203 3204 3205 3207 3208 3210 3211 3212 3213 3214 3216 3218 3219 3220 3221 3222 3223 3224 3225 3226 3226 3227 3228 3229 3230 3230 3231 3232 3233 3233 3234 3235 3236 3236 3237 3237 3238 3239 3240 3240 3240 3241 3241 3242 3243 3243 3243 3243 3243 3243 3243 3242 3241 3240 3240 3239 3238 3238 3238 3237 3237 3236 3235 3234
3166 3168 3170 3172 3174 3176 3178 3180 3182 3183 3185 3187 3188 3190 3191 3192 3193 3194 3195 3197 3199 3200 3201 3203 3204 3206 3207 3209 3210 3211 3212 3214 3216 3217 3219 3220 3220 3221 3222 3223 3223 3224 3225 3226 3227 3228 3228 3229 3230 3230 3231 3232 3232 3233 3233 3234 3234 3235 3236 3237 3237 3237 3238 3239 3239 3240 3240 3240 3240 3241 3240 3240 3240 3239 3238 3238 3237 3236 3236 3236 3235 3234 3233 3232 3231
3164 3165 3166 3168 3170 3172 3175 3177 3179 3181 3183 3185 3186 3188 3188 3189 3190 3191 3193 3195 3197 3198 3199 3200 3202 3204 3205 3206 3207 3209 3210 3212 3214 3215 3216 3218 3219 3219 3220 3221 3222 3222 3223 3224 3225 3225 3226 3227 3228 3228 3229 3230 3230 3230 3230 3231 3231 3232 3233 3233 3234 3234 3235 3236 3236 3237 3237 3237 3237 3238 3237 3237 3237 3237 3236 3236 3235 3235 3234 3234 3233 3232 3231 3230 3228
3161 3163 3164 3165 3167 3169 3171 3173 3175 3178 3180 3182 3184 3185 3186 3187 3188 3190 3191 3193 3194 3195 3197 3198 3200 3201 3202 3204 3205 3206 3208 3210 3211 3213 3214 3215 3216 3217 3218 3219 3219 3220 3221 3222 3222 3223 3224 3225 3226 3227 3227 3228 3228 3228 3228 3228 3228 3229 3229 3230 3231 3231 3232 3233 3233 3233 3234 3234 3234 3235 3235 3234 3234 3235 3234 3233 3233 3233 3232 3232 3231 3230 3230 3228 3226
3158 3160 3162 3163 3164 3166 3168 3170 3172 3175 3177 3179 3181 3182 3183 3185 3186 3188 3189 3190 3191 3193 3195 3196 3197 3199 3200 3202 3203 3204 3206 3208 3209 3210 3212 3213 3214 3215 3215 3216 3217 3218 3219 3219 3220 3221 3222 3223 3223 3224 3225 3225 3226 3226 3226 3226 3226 3226 3226 3227 3228 3228 3229 3229 3230 3230 3230 3231 3231 3232 3232 3232 3232 3232 3232 3231 3231 3231 3230 3230 3229 3228 3227 3226 3225
3154 3155 3157 3159 3161 3163 3164 3166 3169 3171 3174 3176 3177 3179 3180 3182 3184 3186 3187 3188 3189 3190 3192 3193 3194 3196 3198 3199 3200 3202 3204 3206 3207 3208 3210 3211 3212 3212 3213 3214 3214 3215 3217 3218 3218 3219 3220 3220 3221 3222 3223 3223 3224 3224 3224 3224 3224 3224 3224 3225 3225 3225 3226 3227 3227 3227 3227 3228 3228 3228 3229 3230 3230 3230 3230 3229 3229 3228 3227 3227 3227 3226 3225 3224 3223
3150 3152 3153 3155 3157 3159 3161 3163 3165 3168 3170 3172 3174 3176 3178 3179 3181 3183 3184 3185 3187 3188 3189 3191 3192 3194 3195 3196 3198 3200 3202 3203 3205 3206 3208 3209 3209 3210 3210 3211 3212 3213 3214 3216 3216 3217 3218 3219 3219 3220 3220 3221 3222 3222 3222 3222 3222 3222 3222 3223 3223 3223 3224 3224 3224 3224 3224 3224 3225 3226 3226 3227 3227 3227 3227 3227 3227 3226 3225 3225 3224 3223 3222 3221 3220
3148 3149 3150 3152 3153 3155 3157 3159 3161 3164 3166 3168 3170 3173 3175 3177 3178 3180 3181 3183 3184 3186 3187 3189 3190 3191 3192 3194 3195 3197 3199 3201 3203 3204 3205 3206 3207 3207 3208 3209 3210 3211 3212 3213 3214 3215 3216 3217 3217 3218 3218 3219 3219 3219 3219 3219 3220 3220 3220 3221 3220 3221 3222 3222 3221 3221 3221 3222 3222 3223 3223 3224 3224 3224 3225 3224 3224 3223 3222 3222 3221 3221 3220 3218 3217
3146 3146 3147 3148 3149 3151 3153 3155 3157 3160 3162 3165 3167 3169 3172 3174 3176 3177 3178 3180 3182 3183 3185 3186 3187 3188 3190 3191 3193 3194 3196 3198 3200 3201 3203 3204 3204 3205 3205 3206 3207 3208 3209 3211 3211 3212 3213 3214 3215 3215 3216 3217 3217 3217 3217 3216 3217 3218 3218 3218 3218 3219 3220 3219 3219 3219 3219 3219 3220 3220 3221 3221 3221 3221 3222 3221 3221 3221 3220 3219 3218 3217 3217 3215 3214
3143 3142 3143 3144 3145 3146 3148 3150 3153 3156 3159 3162 3164 3166 3168 3170 3172 3174 3175 3177 3178 3180 3182 3183 3184 3186 3187 3188 3190 3191 3193 3195 3197 3199 3200 3201 3201 3202 3202 3203 3204 3206 3207 3208 3209 3209 3210 3211 3212 3213 3214 3215 3215 3215 3214 3214 3214 3215 3215 3214 3215 3217 3217 3216 3216 3216 3216 3217 3217 3217 3217 3217 3218 3218 3218 3218 3218 3217 3216 3216 3215 3214 3213 3212 3211
3139 3138 3138 3140 3141 3142 3144 3146 3148 3151 3155 3158 3160 3162 3164 3166 3168 3170 3172 3173 3175 3176 3178 3180 3181 3183 3185 3186 3187 3188 3189 3191 3193 3195 3196 3197 3198 3198 3199 3199 3201 3203 3204 3205 3205 3206 3207 3208 3210 3211 3212 3212 3213 3213 3212 3212 3212 3212 3211 3212 3213 3214 3213 3213 3213 3213 3214 3214 3214 3214 3214 3214 3215 3215 3215 3214 3214 3213 3213 3212 3211 3210 3209 3207 3206
3134 3135 3135 3136 3138 3139 3140 3142 3144 3147 3150 3153 3156 3158 3160 3162 3164 3166 3168 3170 3171 3173 3174 3176 3178 3180 3182 3183 3183 3185 3186 3187 3189 3191 3192 3193 3194 3195 3195 3197 3199 3200 3200 3201 3202 3203 3204 3205 3206 3208 3209 3209 3210 3210 3210 3210 3209 3209 3209 3209 3209 3210 3209 3209 3210 3210 3210 3211 3211 3211 3211 3211 3212 3211 3211 3210 3210 3209 3209 3208 3207 3206 3204 3203 3202
3130 3131 3132 3133 3134 3136 3137 3139 3141 3143 3145 3148 3151 3154 3156 3158 3160 3162 3164 3166 3167 3169 3171 3172 3174 3176 3178 3179 3180 3181 3183 3184 3185 3187 3188 3189 3191 3191 3192 3194 3196 3196 3197 3198 3199 3200 3201 3202 3203 3204 3205 3205 3206 3206 3207 3206 3206 3206 3206 3206 3206 3206 3206 3206 3206 3207 3207 3207 3207 3208 3208 3208 3208 3207 3207 3206 3206 3205 3204 3204 3203 3202 3200 3199 3198
3127 3127 3129 3130 3131 3133 3134 3136 3138 3139 3141 3144 3147 3149 3152 3154 3155 3157 3159 3162 3163 3165 3167 3168 3170 3171 3173 3175 3176 3178 3179 3181 3182 3183 3185 3186 3187 3188 3189 3191 3192 3193 3193 3194 3196 3197 3198 3199 3200 3201 3201 3201 3202 3202 3203 3203 3203 3203 3203 3203 3202 3202 3203 3203 3203 3204 3203 3204 3204 3204 3204 3204 3204 3204 3203 3202 3201 3200 3200 3200 3199 3197 3196 3195 3194
3123 3124 3125 3126 3128 3129 3131 3133 3134 3136 3137 3139 3142 3145 3147 3149 3151 3152 3155 3157 3159 3161 3162 3164 3165 3167 3168 3170 3172 3174 3176 3178 3179 3180 3181 3182 3183 3184 3186 3187 3188 3189 3190 3191 3192 3193 3194 3195 3196 3197 3197 3198 3198 3198 3199 3199 3199 3200 3200 3199 3199 3199 3199 3200 3200 3200 3200 3201 3201 3201 3201 3200 3200 3199 3199 3198 3197 3196 3196 3195 3194 3193 3192 3190 3189
3120 3121 3122 3123 3124 3126 3127 3129 3131 3133 3134 3135 3137 3140 3143 3145 3147 3148 3150 3152 3154 3156 3158 3159 3161 3162 3164 3166 3168 3171 3173 3174 3175 3176 3177 3178 3179 3180 3182 3183 3184 3185 3186 3187 3188 3189 3190 3191 3192 3192 3193 3194 3194 3195 3195 3196 3196 3196 3196 3196 3196 3196 3196 3196 3196 3196 3196 3197 3197 3197 3197 3196 3196 3195 3194 3193 3193 3192 3192 3191 3190 3189 3188 3187 3185
3116 3117 3119 3120 3121 3122 3123 3125 3127 3129 3130 3132 3133 3135 3138 3141 3143 3144 3145 3147 3149 3152 3153 3155 3156 3158 3160 3162 3164 3167 3169 3170 3172 3173 3174 3175 3176 3177 3178 3179 3180 3181 3182 3183 3185 3185 3186 3187 3188 3188 3189 3189 3190 3191 3191 3192 3192 3192 3193 3193 3193 3193 3193 3193 3192 3192 3193 3193 3193 3193 3192 3192 3191 3190 3190 3189 3189 3188 3187 3187 3186 3185 3184 3183 3181
3112 3114 3115 3116 3117 3118 3119 3121 3123 3125 3127 3128 3130 3131 3133 3136 3138 3140 3141 3143 3145 3147 3149 3150 3151 3154 3156 3158 3161 3163 3164 3166 3168 3169 3171 3173 3174 3175 3175 3176 3177 3178 3179 3181 3182 3182 3182 3183 3183 3183 3184 3185 3185 3186 3187 3188 3189 3189 3189 3190 3190 3190 3190 3189 3189 3189 3189 3189 3188 3188 3188 3187 3186 3186 3185 3185 3185 3184 3183 3182 3182 3181 3180 3179 3178
3108 3109 3111 3112 3113 3114 3115 3117 3118 3120 3123 3124 3126 3127 3129 3132 3134 3136 3138 3139 3140 3142 3144 3145 3147 3150 3153 3155 3157 3158 3159 3162 3164 3167 3169 3170 3171 3172 3173 3174 3175 3176 3177 3178 3178 3178 3178 3178 3178 3179 3179 3180 3181 3182 3183 3184 3184 3185 3186 3186 3186 3186 3186 3186 3186 3186 3186 3185 3185 3184 3184 3183 3182 3182 3182 3181 3181 3180 3179 3178 3178 3177 3176 3175 3174
3103 3105 3106 3107 3108 3109 3111 3112 3114 3116 3118 3120 3122 3124 3126 3128 3130 3131 3133 3135 3136 3137 3138 3140 3143 3146 3148 3150 3152 3153 3155 3158 3161 3163 3165 3167 3168 3169 3170 3171 3172 3173 3174 3175 3173 3172 3173 3173 3173 3174 3175 3175 3176 3177 3178 3179 3180 3180 3181 3181 3182 3182 3182 3182 3182 3182 3182 3181 3181 3180 3180 3179 3179 3178 3178 3178 3177 3176 3176 3175 3175 3174 3173 3172 3171
3099 3100 3101 3102 3103 3105 3106 3108 3110 3112 3113 3115 3117 3120 3122 3124 3126 3127 3128 3130 3132 3133 3134 3136 3139 3141 3143 3144 3146 3148 3150 3152 3155 3157 3160 3162 3164 3166 3167 3168 3169 3170 3171 3170 3168 3168 3168 3168 3169 3170 3170 3171 3172 3173 3173 3174 3174 3175 3176 3177 3177 3177 3177 3178 3178 3178 3177 3177 3176 3176 3176 3175 3175 3175 3175 3174 3174 3173 3172 3172 3171 3170 3169 3168 3167
3093 3095 3096 3097 3099 3100 3102 3104 3106 3107 3109 3111 3113 3115 3118 3120 3121 3123 3124 3126 3127 3129 3131 3132 3134 3136 3138 3140 3141 3143 3145 3147 3149 3152 3155 3157 3160 3161 3163 3164 3165 3166 3166 3164 3163 3163 3163 3163 3164 3165 3166 3167 3168 3168 3168 3169 3170 3171 3172 3172 3173 3173 3173 3173 3174 3173 3173 3173 3172 3172 3172 3171 3171 3171 3171 3171 3170 3169 3168 3167 3167 3166 3165 3165 3164
3087 3089 3091 3093 3094 3095 3097 3100 3102 3103 3105 3106 3108 3111 3113 3115 3117 3119 3120 3121 3122 3124 3126 3128 3130 3131 3133 3135 3136 3138 3140 3142 3145 3147 3150 3152 3154 3156 3158 3159 3159 3160 3160 3159 3159 3159 3159 3159 3160 3161 3162 3163 3163 3163 3164 3165 3167 3167 3168 3168 3169 3169 3169 3169 3169 3169 3169 3169 3168 3168 3168 3167 3167 3167 3167 3166 3165 3165 3164 3163 3163 3162 3161 3161 3160
3082 3083 3085 3087 3089 3092 3094 3096 3096 3097 3099 3101 3104 3106 3108 3110 3112 3114 3115 3116 3117 3119 3122 3124 3126 3127 3128 3130 3132 3134 3136 3137 3139 3142 3144 3147 3149 3151 3152 3152 3153 3154 3154 3154 3154 3155 3155 3156 3156 3157 3158 3159 3158 3159 3162 3163 3164 3164 3164 3165 3165 3165 3165 3165 3165 3165 3165 3165 3164 3164 3164 3163 3163 3162 3162 3161 3161 3161 3160 3160 3159 3159 3158 3157 3156
3076 3077 3079 3081 3085 3089 3090 3090 3091 3093 3096 3100 3104 3105 3105 3106 3107 3108 3109 3111 3113 3115 3118 3121 3122 3124 3125 3126 3128 3129 3130 3132 3134 3137 3139 3141 3143 3145 3146 3146 3147 3148 3149 3150 3151 3151 3152 3152 3152 3154 3156 3156 3156 3157 3160 3160 3160 3160 3161 3161 3161 3161 3161 3161 3161 3161 3161 3161 3161 3160 3160 3159 3159 3159 3158 3157 3157 3157 3156 3156 3155 3155 3154 3153 3153
3070 3072 3073 3076 3081 3085 3084 3083 3085 3089 3093 3096 3099 3101 3101 3101 3102 3103 3104 3106 3108 3111 3113 3116 3118 3120 3121 3123 3125 3126 3127 3128 3130 3132 3133 3135 3137 3138 3139 3140 3142 3143 3145 3146 3147 3147 3148 3148 3148 3151 3153 3153 3152 3153 3154 3155 3155 3156 3156 3157 3157 3157 3157 3157 3157 3157 3157 3157 3157 3156 3156 3156 3156 3156 3155 3154 3154 3153 3153 3152 3151 3151 3150 3149 3149
3065 3066 3068 3071 3076 3079 3078 3077 3079 3084 3088 3089 3090 3092 3093 3094 3096 3097 3099 3101 3103 3105 3108 3110 3113 3115 3117 3120 3122 3124 3124 3125 3126 3126 3128 3129 3130 3132 3133 3134 3136 3138 3140 3141 3142 3142 3143 3144 3144 3146 3148 3148 3148 3148 3149 3150 3150 3151 3152 3152 3152 3152 3153 3153 3153 3153 3153 3153 3153 3153 3153 3153 3152 3152 3152 3151 3150 3149 3149 3148 3147 3147 3146 3146 3145
3059 3061 3063 3066 3070 3073 3074 3073 3074 3079 3083 3084 3084 3085 3086 3088 3089 3091 3094 3096 3097 3099 3101 3104 3107 3109 3112 3115 3118 3120 3120 3121 3121 3121 3122 3123 3124 3125 3127 3129 3131 3133 3135 3136 3137 3138 3139 3140 3140 3142 3143 3144 3144 3144 3144 3145 3146 3147 3147 3147 3147 3148 3148 3148 3149 3149 3149 3149 3149 3149 3149 3149 3149 3148 3148 3147 3146 3146 3145 3144 3143 3142 3142 3142 3141
3054 3056 3058 3060 3064 3067 3069 3069 3069 3071 3074 3077 3078 3079 3079 3080 3082 3085 3088 3090 3091 3093 3095 3098 3101 3104 3107 3110 3113 3115 3116 3116 3116 3117 3117 3118 3120 3121 3122 3124 3126 3128 3130 3132 3133 3134 3135 3136 3137 3138 3139 3140 3140 3140 3141 3141 3141 3142 3142 3142 3142 3142 3142 3144 3146 3147 3146 3146 3146 3146 3146 3146 3145 3144 3143 3143 3142 3141 3141 3140 3139 3138 3138 3137 3136
3050 3051 3053 3055 3058 3061 3063 3064 3065 3066 3068 3070 3072 3072 3072 3074 3076 3079 3081 3083 3085 3087 3090 3093 3095 3098 3101 3104 3106 3109 3111 3112 3113 3114 3115 3116 3116 3117 3119 3121 3123 3124 3126 3128 3129 3130 3132 3132 3133 3134 3134 3135 3135 3136 3136 3137 3137 3137 3137 3137 3137 3137 3137 3139 3141 3142 3142 3142 3142 3142 3142 3141 3141 3140 3139 3138 3138 3137 3136 3136 3135 3134 3133 3132 3132
3047 3047 3048 3049 3052 3055 3057 3058 3060 3061 3062 3064 3064 3064 3067 3069 3071 3073 3075 3076 3078 3081 3084 3086 3088 3091 3094 3096 3098 3102 3105 3107 3109 3112 3114 3115 3115 3115 3116 3118 3119 3121 3122 3124 3125 3127 3128 3128 3129 3130 3130 3131 3131 3132 3132 3132 3132 3132 3132 3132 3132 3132 3133 3135 3136 3137 3137 3137 3137 3137 3137 3137 3136 3136 3135 3134 3134 3133 3132 3131 3130 3130 3129 3128 3127
3045 3044 3044 3045 3047 3049 3051 3053 3054 3055 3056 3057 3057 3058 3062 3065 3065 3066 3068 3070 3071 3074 3077 3079 3081 3085 3087 3088 3090 3094 3098 3100 3102 3105 3108 3110 3111 3111 3112 3113 3115 3116 3118 3119 3121 3123 3124 3125 3125 3125 3126 3126 3127 3127 3127 3128 3128 3127 3127 3127 3127 3128 3129 3130 3131 3132 3132 3132 3132 3132 3132 3132 3132 3131 3131 3130 3129 3129 3128 3127 3126 3125 3125 3124 3124
3043 3042 3041 3041 3042 3043 3045 3047 3048 3049 3050 3050 3050 3053 3058 3060 3059 3060 3062 3063 3065 3067 3070 3072 3075 3078 3080 3081 3083 3086 3089 3093 3096 3099 3101 3102 3104 3105 3106 3108 3109 3111 3113 3115 3116 3118 3119 3121 3121 3121 3122 3122 3122 3123 3123 3123 3123 3122 3122 3123 3123 3123 3124 3125 3126 3126 3127 3127 3127 3127 3127 3127 3127 3126 3126 3125 3125 3124 3124 3123 3123 3122 3121 3120 3120
3041 3041 3039 3038 3038 3038 3039 3041 3043 3043 3044 3044 3044 3047 3051 3053 3054 3055 3057 3058 3059 3061 3063 3066 3069 3072 3073 3074 3076 3078 3082 3086 3090 3092 3094 3096 3097 3099 3100 3102 3104 3105 3107 3109 3111 3113 3115 3116 3117 3117 3117 3117 3117 3117 3118 3119 3118 3118 3118 3118 3119 3119 3119 3120 3121 3121 3122 3122 3122 3122 3122 3122 3122 3122 3121 3121 3120 3120 3119 3119 3118 3118 3117 3116 3116
3038 3038 3037 3036 3035 3034 3035 3036 3037 3038 3038 3038 3038 3039 3041 3044 3047 3048 3049 3050 3052 3054 3057 3061 3064 3066 3068 3069 3071 3073 3077 3081 3085 3087 3089 3090 3092 3094 3096 3097 3099 3100 3102 3103 3106 3108 3110 3111 3112 3112 3112 3112 3112 3112 3113 3113 3114 3114 3114 3114 3114 3115 3115 3116 3116 3117 3117 3118 3118 3118 3118 3118 3118 3118 3117 3117 3116 3116 3115 3114 3114 3113 3113 3112 3111
3036 3035 3035 3034 3033 3032 3031 3031 3032 3033 3032 3031 3031 3031 3032 3034 3038 3040 3040 3042 3045 3047 3049 3054 3059 3062 3064 3066 3067 3069 3071 3076 3080 3082 3084 3086 3087 3090 3092 3093 3095 3095 3096 3097 3099 3102 3104 3105 3106 3107 3107 3107 3107 3107 3107 3108 3109 3109 3110 3110 3111 3111 3111 3112 3112 3113 3113 3114 3114 3114 3113 3113 3113 3113 3113 3112 3112 3111 3110 3110 3109 3109 3108 3107 3106
3034 3033 3032 3032 3032 3032 3030 3029 3028 3028 3028 3027 3027 3027 3028 3031 3035 3036 3035 3038 3041 3043 3044 3049 3056 3059 3059 3060 3061 3062 3065 3071 3076 3079 3081 3082 3084 3085 3087 3088 3089 3090 3091 3092 3094 3096 3099 3100 3101 3102 3102 3102 3102 3103 3103 3104 3104 3105 3106 3106 3107 3107 3108 3108 3109 3109 3110 3110 3110 3110 3110 3110 3109 3109 3109 3108 3108 3107 3106 3106 3105 3104 3103 3102 3101
3032 3032 3032 3031 3031 3031 3030 3029 3029 3029 3029 3029 3029 3028 3028 3029 3032 3032 3033 3036 3040 3042 3043 3046 3051 3055 3056 3057 3058 3060 3063 3067 3072 3076 3078 3079 3081 3082 3082 3083 3085 3086 3087 3089 3091 3093 3094 3096 3096 3097 3097 3098 3098 3099 3099 3099 3100 3101 3101 3102 3103 3103 3104 3104 3105 3105 3106 3106 3106 3106 3106 3106 3106 3105 3105 3104 3103 3102 3102 3101 3100 3100 3099 3098 3097
3032 3032 3031 3031 3030 3030 3030 3030 3030 3030 3030 3030 3030 3029 3028 3028 3028 3029 3032 3036 3039 3041 3043 3046 3049 3053 3056 3058 3059 3060 3062 3065 3068 3071 3073 3075 3077 3078 3079 3080 3081 3083 3085 3086 3087 3089 3090 3091 3092 3093 3093 3094 3094 3095 3095 3096 3096 3097 3098 3098 3099 3099 3100 3100 3101 3101 3101 3101 3102 3102 3102 3102 3102 3101 3100 3100 3099 3098 3097 3097 3096 3095 3094 3093 3092
3031 3031 3031 3031 3030 3030 3029 3030 3030 3031 3030 3029 3029 3030 3031 3030 3028 3028 3031 3036 3039 3041 3043 3046 3049 3051 3054 3056 3058 3059 3060 3062 3065 3067 3069 3071 3073 3075 3076 3078 3080 3081 3082 3083 3085 3086 3087 3087 3088 3089 3090 3090 3090 3091 3091 3092 3092 3093 3093 3094 3094 3095 3096 3096 3096 3096 3096 3096 3097 3097 3097 3096 3096 3095 3095 3094 3093 3092 3091 3091 3090 3089 3088 3087 3086
3031 3031 3031 3030 3030 3030 3029 3029 3030 3030 3030 3029 3028 3029 3031 3032 3032 3032 3033 3036 3038 3040 3043 3045 3047 3049 3052 3054 3056 3058 3060 3062 3065 3067 3068 3069 3071 3073 3074 3076 3077 3079 3080 3081 3082 3083 3083 3083 3084 3085 3085 3086 3086 3086 3087 3087 3088 3089 3089 3089 3090 3090 3091 3091 3091 3091 3092 3092 3091 3091 3091 3091 3090 3090 3089 3089 3088 3087 3086 3085 3084 3083 3083 3082 3081